User: anonymous   Login
Location: Unspecified
(0.0000°N, 0.0000°E)
Time: 23:09:27
(UTC+00:00)
Language:

Tiros N - Orbit

View from above orbital plane
View from above orbital plane
View from above satellite
View from above satellite

Ground track
Ground track

The orbit data is extracted from the following two-line orbital elements,

1 11060U 78096A   21125.66897581  .00000006  00000-0  23781-4 0  9990
2 11060  98.6911 183.9035 0009705 232.2405 127.7892 14.18307108414044
Epoch (UTC): 05 May 2021 16:03:19
Eccentricity: 0.0009705
inclination: 98.6911°
perigee height: 824 km
apogee height: 838 km
right ascension of ascending node: 183.9035°
argument of perigee: 232.2405°
revolutions per day: 14.18307108
mean anomaly at epoch: 127.7892°
orbit number at epoch: 41404

The dashed part of the orbit path shows where the satellite is in the earth's shadow,  

DLR